Regional Weather Roundup
Issued by NWS Wakefield, VA

Home | Current Version | Previous Version | Graphics & Text | Print | Product List | Glossary Off
Versions: 1 2 3 4 5 6 7 8 9 10 11 12 13 14 15 16 17 18 19 20 21 22 23 24 25 26 27 28 29 30 31 32 33 34 35 36 37 38 39 40 41 42 43 44 45 46 47 48 49 50

000
ASUS41 KAKQ 281910
RWRAKQ

REGIONAL WEATHER ROUNDUP
NATIONAL WEATHER SERVICE WAKEFIELD VA
200 PM EST WED JAN 28 2015

Note: "fair" indicates few or no clouds below 12,000 feet with no
significant weather and/or obstructions to visibility. * = Denotes
station may not report precipitation (e.g., rain,snow,etc.),
thunder or fog.

VAZ042-051-052>054-056-282000-
NORTHERN VIRGINIA

CITY           SKY/WX    TMP DP  RH WIND       PRES   REMARKS
WASH NATIONAL  SUNNY     37   7  28 NW18G25   30.23F
DULLES         SUNNY     33   7  33 NW17G24   30.23S WCI  22
FORT BELVOIR   SUNNY     35   6  30 NW12      30.24S
QUANTICO       SUNNY     37   6  27 N20G26    30.24F
FREDERICKSBRG* SUNNY     39   4  23 NW13G23   30.22S
STAFFORD*      SUNNY     37   5  26 NW17      30.27S
WARRENTON      SUNNY     40  15  36 NW15      30.22S
CULPEPER*      SUNNY     39   1  20 N14G22    30.23S
MANASSAS*      SUNNY     36   9  32 NW12G17     N/A
LEESBURG*      SUNNY     34  12  40 NW17      30.23F WCI  23
WINCHESTER     SUNNY     34   3  27 NW16      30.22F WCI  23
FRONT ROYAL*   FAIR      34   9  35 N8        30.22F
LURAY*         FAIR      37   7  28 NW8       30.21S
$$

VAZ048-049-060>072-079>083-282000-
CENTRAL AND SOUTH CENTRAL VIRGINIA

CITY           SKY/WX    TMP DP  RH WIND       PRES   REMARKS
RICHMOND       SUNNY     43   5  20 NW10      30.21F
CHESTERFIELD*  FAIR      41   9  26 NW14G20   30.23S
PETERSBURG*    SUNNY     42   3  20 N14G23    30.22S
HANOVER        SUNNY     41   5  22 NW12G21   30.23S
TAPPAHANNOCK*  SUNNY     38   1  21 NW8G17    30.22S
QUINTON*       FAIR      38   5  25 N6        30.21S
CHARLOTTSVILLE SUNNY     40   1  19 N14       30.21F
GORDONSVILLE*  FAIR      40   0  18 NW5       30.20F
ORANGE*        SUNNY     43   5  21 NW8       30.22F
LOUISA*        SUNNY     43  10  26 N8        30.19F
BUMPASS*       FAIR      39   5  24 N6G16     30.20F
FARMVILLE*     SUNNY     48   4  16 N3        30.20S
CREWE*         FAIR      41   1  18 NE5       30.20F
FORT PICKETT*  FAIR      40   9  27 NW7       30.20F
CHASE CITY*    FAIR      43  10  25 NW5       30.20F
CLARKSVILLE*   FAIR      41  10  28 NW7       30.20F
SOUTH HILL*    SUNNY     40   7  25 NW5       30.26F
LAWRENCEVILLE* FAIR      41   9  27 N10       30.21S
EMPORIA*       SUNNY     39  10  30 NW10G18   30.23S
$$

VAZ088>098-282000-
SOUTHEAST VIRGINIA

CITY           SKY/WX    TMP DP  RH WIND       PRES   REMARKS
NORFOLK        SUNNY     38   8  29 NW10      30.18F
VIRGINIA BEACH SUNNY     39  12  33 N15G25    30.17F
NORFOLK NAVAL  SUNNY     43   9  24 NW12      30.20F
WEST POINT*    SUNNY     41  -2  16 NW9G17    30.23S
SALUDA*        FAIR      35  10  35 NW12G18   30.19F
NEWPORT NEWS   SUNNY     42   9  25 VRB6      30.20F
LANGLEY AFB    SUNNY     38   9  30 NW10G16   30.19F
FORT EUSTIS    SUNNY     39  19  45 NW10      30.18F
WILLIAMSBURG*    N/A     45  12  26 NW8G16    30.21S
HR EXEC AP*    FAIR      39  10  30 N6G18     30.22S
FRANKLIN*      SUNNY     38   8  27 NW7       30.21F
WAKEFIELD      SUNNY     40   5  23 N8G17     30.21F
$$

VAZ020-022-025-037-045-282000-
WEST CENTRAL AND SOUTHWEST VIRGINIA

CITY           SKY/WX    TMP DP  RH WIND       PRES   REMARKS
STAUNTON*      SUNNY     37   7  28 N7        30.22F
WAYNESBORO*    FAIR      34   9  34 NE9       30.18F
HOT SPRINGS VA SUNNY     28   6  38 NW9       30.06S
LYNCHBURG      SUNNY     40   6  24 W6        30.20F
DANVILLE       SUNNY     44  11  26 VRB6      30.21F
SOUTH BOSTON*  FAIR      42   4  20 N3        30.21F
MARTINSVILLE   SUNNY     45  13  27 N10       30.23S
ROANOKE        SUNNY     41   8  25 W10       30.22F
BLACKSBURG     SUNNY     33  15  47 W9        30.21F
DUBLIN*        SUNNY     37  13  37 N7        30.20F
MARION*        SUNNY     35  17  49 W6        30.21F
HILLSVILLE*    SUNNY     34  16  47 NW10G16   30.15F
RICHLANDS*     FAIR      31  15  52 W5        30.20F
WISE*          SUNNY     34  18  51 NE3       30.21F
ABINGDON*      SUNNY     35  19  51 W5        30.23F
$$

MDZ021>025-VAZ099-100-282000-
SOUTHERN MARYLAND AND THE DELMARVA PENINSULA

CITY           SKY/WX    TMP DP  RH WIND       PRES   REMARKS
PATUXENT RIVER SUNNY     36   8  31 NW16      30.18F
BAY BRIDGE APT   N/A     36   9  32 NW16      30.18F
LEONARDTOWN    SUNNY     36   5  27 W12G17    30.20S
DOVER          SUNNY     34   7  32 NW20G26   30.14S WCI  22
GEORGETOWN     SUNNY     35   4  27 NW13G20   30.14S
EASTON         SUNNY     37  12  35 NW12G22   30.21S
CAMBRIDGE      SUNNY     36   9  32 NW9G21    30.17S
SALISBURY      SUNNY     37   8  30 NW15G23   30.14F
OCEAN CITY     SUNNY     35   8  32 NW14G25   30.12S
WALLOPS ISLAND SUNNY     36  11  35 NW15G23   30.15S
ACCOMACK*      SUNNY     34  12  40 NW18G29   30.17S WCI  23
$$

NCZ012>017-030>032-282000-
NORTH CENTRAL AND EASTERN NORTH CAROLINA

CITY           SKY/WX    TMP DP  RH WIND       PRES   REMARKS
ROANOKE RAPIDS FAIR      43  10  26 NW7       30.21F
RALEIGH        SUNNY     43  12  28 CALM      30.21F
ELIZABETH CITY SUNNY     40  13  33 NW14      30.19S
AHOSKIE*       SUNNY     40  10  30 N5        30.22S
EDENTON*       SUNNY     40  12  31 N9        30.20S
CURRITUCK*     SUNNY     38   9  29 NW13      30.18S
KILL DEVIL HLS SUNNY     37  17  44 NW8G16    30.15S
MANTEO         SUNNY     37  16  41 N13G21    30.17S
CAPE HATTERAS  SUNNY     40  23  50 N8        30.15F
TARBORO*       FAIR      43  12  27 N12       30.22F
GOLDSBORO      SUNNY     43  15  32 N10G17    30.20F
WASHINGTON     SUNNY     41  11  29 N8G16     30.20S
GREENVILLE     SUNNY     41  12  30 N10       30.22F
NEW BERN       SUNNY     44  11  26 N10       30.20S
WILMINGTON     SUNNY     45  18  34 N12G21    30.19F
$$

VAZ048-282000-
ELSEWHERE

CITY           SKY/WX    TMP DP  RH WIND       PRES   REMARKS
HARRISBURG PA  SUNNY     31   4  31 N15       30.18S WCI  20
BALTIMORE      SUNNY     36   4  26 NW10G20   30.18S
ANNAPOLIS      SUNNY     35   7  31 NW13G22   30.18F
ANDREWS AFB    SUNNY     34   9  35 NW13      30.19F WCI  25
PHILADELPHIA   SUNNY     33   2  26 NW13G25   30.14S WCI  24
HENDERSON NC   SUNNY     42   5  22 N3        30.21F
GREENSBORO     SUNNY     42  10  27 CALM      30.20F
ROCKY MOUNT    SUNNY     44  11  26 N10       30.22F
$$

VAZ100-282000-
MARINE

STATION/POSITION TIME  TEMP    WIND        PRES    WAVE   SWELL
                       AIR SEA DIR/SP/G            HT/PER HT/PER
                 (UTC) (F)     (DEG/KT/KT) (MB)    (FT/S) (FT/S)
BRANDYWINE LGT   1900   29 36  330/ 19/ 22 1020.0S
CAPE MAY NJ      1900   30 36  320/ 20/ 26 1019.5S
LEWES DE         1900   31 34  330/ 18/ 21 1020.2S
15NM E FENWICK I 1900   31 40              1019.0S   6/ 6
OCEAN-CITY-INLET 1900   34 37  340/ 12/ 15 1019.4S
WACHAPREAGUE VA  1900   35 36  290/  5/ 14 1021.5S
THOMAS POINT MD  1900   34 36  330/ 18/ 20 1022.9R
COVE POINT MD    1900   33     350/ 17/ 19 1021.8S
SOLOMONS ISLAND  1900      37                N/A
BISHOPS HEAD MD  1900   34 35  330/ 16/ 21 1021.2F
PINEY POINT MD   1900          320/ 19/ 20   N/A
CAMBRIDGE MD     1900   33 35  320/ 14/ 18 1021.5S
LEWISETTA VA     1900   33 36  310/ 14/ 17 1022.4R
RAPPAHANNOCK LGT 1900          320/ 16/ 19 1022.4F
YORK RVR RNG VA  1900   36     330/ 13/ 15 1021.7R
YORKTOWN VA      1900   35 39  310/ 15/ 18 1022.3S
DOMINION TERM VA 1900   35     310/ 16/ 19 1022.2F
KIPTOPEKE VA     1900      44  340/ 18/ 20   N/A
CHES BAY BRIDGE  1900   35 40  310/ 17/ 20 1021.8F
CAPE HENRY VA    1900   33     320/ 17/ 20 1020.6F
CHESAPEAKE LGHT  1800   31     330/ 23/ 25 1022.1F
WILLOUBY STN VA  1900   36     330/  9/ 11 1022.7F
S CRANEY ISL VA  1900          290/ 12/ 17 1022.4S
CAPE HENRY BUOY  1900      43                N/A     6/ 8   2/13
CAPE CHARLES BUO 1900      41                N/A     4/ 7   3/ 7
OFFSHORE WE BUOY 1900      44                N/A     7/ 5   3/13
64NM E OF VA BCH 1900   36 51  330/ 23/ 27 1019.1F   9/13   7/13
DUCK PIER NC     1900   35 42  340/ 16/ 20 1020.4F
44100 DUCK FRF   1900      46                N/A     8/13   3/13
44056 DUCK FRF   1900      43                N/A     6/13   3/13
OREGON INLET NC  1900   37 42  340/ 13/ 18 1021.1S
HATTERAS NC      1900   37 45  350/ 16/ 19 1021.3F
DIAMOND SHLS NC  1900   37 57  340/ 23/ 27 1020.1R   8/11   5/11
CAPE LOOKOUT NC  1900   41     330/ 12/ 15 1021.4F
$$


USA.gov is the U.S. government's official web portal to all federal, state and local government web resources and services.